Location: Newark
(7.0858°N, 171.3717°E)
Time: 16:27:07
(UTC+00:00)

Transit 2A - Pass Details

Date: 05 December 2020
Orbit: 598 x 960 km, 66.7° (Epoch: 20 January)

Event Time Altitude Azimuth Distance (km) Brightness Sun altitude
Rises 03:28:30 0° 210° (SSW) 3,573 10.3 36.3°
Reaches altitude 10° 03:31:04 10° 215° (SW) 2,656 9.9 35.8°
Maximum altitude 03:37:09 53° 290° (WNW) 1,162 7.9 34.5°
Drops below altitude 10° 03:43:16 10° 6° (N) 2,666 8.6 33.3°
Sets 03:45:52 0° 11° (NNE) 3,588 9.1 32.7°
